User: anonymous   Login
Location: Fond Mahaut
(18.0707°N, 63.0465°W)
Time: 09:46:09
(UTC+00:00)
Language:

Okean 1-7 - Orbit

View from above orbital plane
View from above orbital plane
View from above satellite
View from above satellite

Ground track
Ground track

The orbit data is extracted from the following two-line orbital elements,

1 23317U 94066A   20055.86649533 +.00000177 +00000-0 +16636-4 0  9998
2 23317 082.5354 273.9456 0020857 045.5826 314.7093 14.87740507372049
Epoch (UTC): 24 February 2020 20:47:45
Eccentricity: 0.0020857
inclination: 82.5354°
perigee height: 590 km
apogee height: 619 km
right ascension of ascending node: 273.9456°
argument of perigee: 45.5826°
revolutions per day: 14.87740507
mean anomaly at epoch: 314.7093°
orbit number at epoch: 37204

The dashed part of the orbit path shows where the satellite is in the earth's shadow,  

DLR